[[{"header":{"parameterUnit":"m.s-1","parameterCategory":2,"la1":30.2992,"la2":30.254,"lo1":-89.0895,"lo2":-89.0443,"dy":0.0025,"dx":0.0025,"nx":19,"ny":19,"refTime":"2026-03-25T21:00:00:Z","depth":"0","parameterNumber":2,"parameterNumberName":"U-component_of_CURRENTS"},"data":[0,0,0,0.2907,0.2906,0.2881,0.2881,0.2893,0.2893,0,0,0,0,0,0,0,0,0,0,0,0.2932,0.2932,0.2907,0.2906,0.2881,0.2881,0.2893,0.2893,0,0,0,0,0,0,0,0,0,0,0,0.2932,0.2932,0.2933,0.2906,0.2881,0.2881,0.2893,0.2902,0,0,0,0,0,0,0,0,0,0,0.2922,0.292,0.2932,0.2933,0.2906,0.2881,0.2881,0.2902,0.2902,0.2915,0,0.2918,0,0.2897,0.2894,0.2894,0,0,0,0.2913,0.2921,0.2927,0.2933,0.2906,0.2881,0.2894,0.2902,0.2901,0.2914,0.2918,0.2917,0.2897,0.2894,0.2894,0.294,0.294,0,0,0.2914,0.2914,0.2927,0.2926,0.2909,0.2895,0.2893,0.2901,0.2898,0.2918,0.2917,0.2897,0.2894,0.2894,0.294,0.294,0,0,0,0.2914,0.2915,0.292,0.2927,0.2914,0.2894,0.2892,0.2898,0.2903,0.2917,0.2897,0.2894,0.2895,0.2939,0.294,0.2941,0,0,0,0.2915,0.2915,0.2921,0.2919,0.2913,0.2894,0.2889,0.2903,0.2902,0.2897,0.2894,0.2895,0.2939,0.294,0.294,0.2962,0,0,0,0.2932,0.2915,0.2919,0.2919,0.2904,0.2893,0.2898,0.2902,0.289,0.2894,0.2895,0.2939,0.2939,0.294,0.296,0.2961,0,0,0,0.2924,0.2925,0.2919,0.2911,0.2905,0.2909,0.2898,0.29,0.2906,0.2894,0.2939,0.294,0.2939,0.2959,0.296,0.2923,0.2924,0,0,0.2921,0.2924,0.292,0.2914,0.2899,0.2912,0.2912,0.2915,0.2924,0.294,0.294,0.2941,0.296,0.2961,0.2974,0.2973,0,0,0,0.2916,0.2906,0.2906,0.289,0.2902,0.2919,0.2918,0.2933,0.2953,0.2929,0.2958,0.2972,0.2971,0.2947,0.2948,0.2766,0.2944,0.2944,0.2944,0.2857,0.2868,0.2857,0.2875,0.2891,0.2918,0.2944,0.2968,0.2966,0.2987,0.2984,0.3007,0.2982,0.2982,0.2796,0.2987,0.2988,0.2988,0.2988,0.2811,0.2791,0.282,0.2819,0.286,0.2876,0.2956,0.2976,0.3019,0.3018,0.3016,0.2966,0.2982,0.2783,0.2988,0.2988,0.2988,0.2988,0.2988,0.2729,0.2733,0.2741,0.2754,0.2786,0.2855,0.2912,0.2976,0.3026,0.3044,0.3006,0.3005,0.282,0.3031,0.3031,0.3031,0.3031,0.3031,0.3032,0.2647,0.2665,0.2655,0.2693,0.2708,0.2772,0.2898,0.2957,0.3015,0.3027,0.3026,0.2807,0.3021,0.3006,0.3033,0.3033,0.3033,0.3033,0.3032,0.2562,0.2576,0.2563,0.2572,0.2626,0.2647,0.28,0.2904,0.2971,0.2982,0.2775,0.301,0.3008,0.3007,0.2993,0.3015,0.3015,0.3015,0.3015,0.25,0.2508,0.2483,0.2483,0.2517,0.2588,0.2621,0.2738,0.2747,0.2685,0.2664,0.2608,0.2617,0.2588,0.2597,0.2573,0.2489,0.2488,0.2487,0.2455,0.2462,0.2418,0.2424,0.2455,0.2507,0.2473,0.2428,0.2435,0.2447,0.2416,0.2439,0.2338,0.2367,0.231,0.2337,0.2295,0,0]},{"header":{"parameterUnit":"m.s-1","parameterCategory":2,"la1":30.2992,"la2":30.254,"lo1":-89.0895,"lo2":-89.0443,"dy":0.0025,"dx":0.0025,"nx":19,"ny":19,"refTime":"2026-03-25T21:00:00:Z","depth":"0","parameterNumber":3,"parameterNumberName":"V-component_of_CURRENTS"},"data":[0,0,0,-0.0047,-0.0046,-0.0001,-0.0,0.0043,0.0043,0,0,0,0,0,0,0,0,0,0,0,-0.007,-0.007,-0.0047,-0.0045,-0.0001,-0.0,0.0043,0.0043,0,0,0,0,0,0,0,0,0,0,0,-0.007,-0.007,-0.007,-0.0045,-0.0001,-0.0,0.0042,0.0012,0,0,0,0,0,0,0,0,0,0,-0.003,-0.0043,-0.007,-0.007,-0.0045,-0.0001,-0.0,0.001,0.0014,0.0019,0,0.0022,0,0.0038,0.0046,0.0046,0,0,0,-0.0047,-0.0045,-0.0038,-0.007,-0.0045,-0.0001,-0.0021,0.0012,0.0016,0.0023,0.0022,0.0024,0.0038,0.0046,0.0046,0.0123,0.0123,0,0,-0.0049,-0.0056,-0.0041,-0.0036,-0.0038,-0.0023,-0.002,0.0015,0.0019,0.0023,0.0026,0.0039,0.0046,0.0047,0.0122,0.0123,0,0,0,-0.0056,-0.0057,-0.0051,-0.0038,-0.0027,-0.0021,-0.0018,0.0018,0.0018,0.0026,0.004,0.0046,0.0047,0.0122,0.0123,0.0184,0,0,0,-0.0057,-0.0061,-0.0052,-0.0054,-0.0027,0.0001,-0.0016,0.0015,0.002,0.0039,0.0046,0.0047,0.0121,0.0122,0.0181,0.0233,0,0,0,-0.0071,-0.0062,-0.006,-0.0055,-0.0034,0.0,0.0003,0.0017,0.0028,0.0046,0.0047,0.0121,0.0122,0.0179,0.0228,0.0275,0,0,0,-0.0075,-0.0051,-0.006,-0.0025,-0.0035,0.0019,0.0003,0.004,0.0058,0.0047,0.0121,0.0123,0.0178,0.0225,0.0272,0.0389,0.0415,0,0,-0.0042,-0.0047,-0.0024,-0.0031,0.0034,0.0013,0.0089,0.0098,0.0079,0.0107,0.0109,0.0182,0.0228,0.0275,0.0463,0.0486,0,0,0,-0.0011,0.0008,0.0025,0.0058,0.0081,0.0122,0.0129,0.014,0.0166,0.0096,0.0191,0.0219,0.0246,0.031,0.0328,0.0274,0.0129,0.0128,0.0128,0.0041,0.0056,0.0109,0.0135,0.0165,0.0204,0.0243,0.0258,0.0221,0.0242,0.0274,0.0364,0.0433,0.0448,0.0391,0.0267,0.0267,0.0268,0.0268,0.0116,0.0152,0.0174,0.0228,0.0258,0.0313,0.036,0.0353,0.0411,0.0353,0.0374,0.0379,0.0472,0.0404,0.0272,0.0271,0.0271,0.027,0.027,0.016,0.018,0.0205,0.0283,0.0353,0.039,0.0498,0.0499,0.048,0.0515,0.0564,0.0564,0.0499,0.0509,0.0509,0.051,0.051,0.051,0.0511,0.0192,0.0221,0.028,0.035,0.0407,0.0494,0.0579,0.0636,0.0681,0.0668,0.0668,0.0542,0.0438,0.0423,0.0518,0.0516,0.0515,0.0515,0.0514,0.0255,0.0258,0.035,0.0408,0.0545,0.0679,0.0735,0.0873,0.0895,0.0936,0.0791,0.0748,0.0745,0.073,0.0723,0.0889,0.0889,0.0889,0.0889,0.0289,0.03,0.0418,0.0522,0.0655,0.0767,0.1004,0.1131,0.1076,0.1034,0.0912,0.0865,0.0853,0.0849,0.0832,0.0824,0.1012,0.1012,0.1012,0.0337,0.0362,0.0453,0.0551,0.0703,0.0882,0.1153,0.1383,0.1239,0.1003,0.0814,0.0809,0.0719,0.0703,0.0675,0.0655,0.0633,0,0]}],[{"header":{"parameterUnit":"m.s-1","parameterCategory":2,"la1":30.2992,"la2":30.254,"lo1":-89.0895,"lo2":-89.0443,"dy":0.0025,"dx":0.0025,"nx":19,"ny":19,"refTime":"2026-03-25T21:00:00:Z","depth":"2","parameterNumber":2,"parameterNumberName":"U-component_of_CURRENTS"},"data":[0,0,0,0.1835,0.1836,0.1878,0.1879,0.1935,0.1935,0,0,0,0,0,0,0,0,0,0,0,0.1804,0.1804,0.1835,0.1836,0.1878,0.1879,0.1935,0.1935,0,0,0,0,0,0,0,0,0,0,0,0.1804,0.1804,0.1804,0.1836,0.1878,0.1879,0.1934,0.1901,0,0,0,0,0,0,0,0,0,0,0.1859,0.1832,0.1804,0.1804,0.1836,0.1878,0.1879,0.19,0.1903,0.1917,0,0.1913,0,0.1934,0.1939,0.1939,0,0,0,0.1833,0.1829,0.1843,0.1804,0.1837,0.1878,0.1859,0.1902,0.1906,0.1922,0.1914,0.1917,0.1935,0.194,0.194,0.2006,0.2007,0,0,0.1831,0.1813,0.184,0.1845,0.1835,0.1857,0.186,0.1904,0.1902,0.1914,0.1918,0.1936,0.194,0.194,0.2006,0.2006,0,0,0,0.1826,0.1811,0.1824,0.1842,0.1855,0.1858,0.1862,0.1899,0.1904,0.1919,0.1937,0.194,0.1941,0.2006,0.2006,0.2042,0,0,0,0.1824,0.1809,0.1823,0.1813,0.1854,0.1879,0.1856,0.19,0.1907,0.1936,0.194,0.1942,0.2005,0.2006,0.2041,0.2025,0,0,0,0.1804,0.1808,0.1808,0.1812,0.1834,0.1879,0.1886,0.1902,0.1918,0.1939,0.1942,0.2005,0.2006,0.2039,0.2023,0.207,0,0,0,0.1791,0.1784,0.1807,0.1813,0.1833,0.1868,0.1885,0.1919,0.1938,0.1941,0.2006,0.2006,0.2039,0.2023,0.2068,0.1966,0.1965,0,0,0.1776,0.1781,0.1788,0.1812,0.1835,0.1863,0.1904,0.194,0.1953,0.199,0.1992,0.2041,0.2023,0.207,0.2004,0.2001,0,0,0,0.1782,0.1784,0.1793,0.1818,0.1849,0.1886,0.1927,0.1956,0.2008,0.1969,0.2044,0.2031,0.206,0.1995,0.1993,0.2009,0.2009,0.2009,0.2009,0.1748,0.1778,0.1785,0.182,0.1848,0.1917,0.1958,0.2007,0.202,0.2054,0.2065,0.2123,0.2055,0.2052,0.2086,0.2086,0.2086,0.2086,0.2086,0.173,0.1735,0.178,0.1798,0.1853,0.1905,0.199,0.203,0.2108,0.2095,0.2124,0.2039,0.2052,0.2089,0.2088,0.2088,0.2088,0.2087,0.2087,0.1703,0.1705,0.1727,0.1765,0.1831,0.1903,0.198,0.2062,0.2117,0.2158,0.2105,0.2102,0.2141,0.2189,0.2189,0.2189,0.2189,0.219,0.219,0.166,0.1677,0.1689,0.174,0.1769,0.1843,0.1982,0.2031,0.2088,0.2112,0.2112,0.2158,0.2155,0.2147,0.2192,0.2192,0.2191,0.2191,0.2191,0.1609,0.1632,0.1637,0.1655,0.1714,0.1718,0.1856,0.1931,0.2024,0.2019,0.2099,0.2101,0.2077,0.2076,0.2066,0.2088,0.2088,0.2088,0.2088,0.157,0.1588,0.1582,0.1592,0.1606,0.1654,0.1613,0.1664,0.1815,0.1858,0.1868,0.1809,0.1818,0.1777,0.1784,0.1766,0.171,0.171,0.1709,0.1527,0.1544,0.1518,0.155,0.1551,0.1541,0.1431,0.1345,0.148,0.1693,0.179,0.2065,0.2003,0.2009,0.1965,0.1967,0.1947,0,0]},{"header":{"parameterUnit":"m.s-1","parameterCategory":2,"la1":30.2992,"la2":30.254,"lo1":-89.0895,"lo2":-89.0443,"dy":0.0025,"dx":0.0025,"nx":19,"ny":19,"refTime":"2026-03-25T21:00:00:Z","depth":"2","parameterNumber":3,"parameterNumberName":"V-component_of_CURRENTS"},"data":[0,0,0,0.0169,0.0169,0.0177,0.0177,0.0189,0.0189,0,0,0,0,0,0,0,0,0,0,0,0.0168,0.0168,0.0169,0.0169,0.0177,0.0177,0.0189,0.0189,0,0,0,0,0,0,0,0,0,0,0,0.0168,0.0168,0.0168,0.0169,0.0177,0.0177,0.0189,0.0183,0,0,0,0,0,0,0,0,0,0,0.0176,0.0174,0.0168,0.0168,0.0169,0.0177,0.0177,0.0183,0.0184,0.0186,0,0.0187,0,0.0187,0.019,0.019,0,0,0,0.0171,0.0174,0.0174,0.0168,0.0169,0.0177,0.0174,0.0183,0.0184,0.0186,0.0187,0.0188,0.0187,0.019,0.019,0.0229,0.0229,0,0,0.0171,0.0171,0.0174,0.0175,0.0171,0.0174,0.0174,0.0184,0.0185,0.0187,0.0188,0.0187,0.019,0.019,0.0229,0.0229,0,0,0,0.0168,0.0171,0.0171,0.0175,0.0175,0.0174,0.0174,0.0185,0.0185,0.0188,0.0187,0.019,0.019,0.0228,0.0229,0.0284,0,0,0,0.0168,0.0169,0.0171,0.0171,0.0175,0.018,0.0175,0.0184,0.0185,0.0187,0.019,0.019,0.0228,0.0229,0.0281,0.0325,0,0,0,0.0168,0.0169,0.0169,0.0171,0.0173,0.0179,0.018,0.0185,0.0185,0.019,0.0191,0.0228,0.0228,0.0279,0.0321,0.0358,0,0,0,0.0168,0.0188,0.0169,0.0194,0.0173,0.0204,0.018,0.0198,0.0207,0.019,0.0228,0.0229,0.0279,0.0318,0.0355,0.0408,0.0424,0,0,0.0197,0.0191,0.0208,0.0192,0.0232,0.0203,0.0249,0.0243,0.0219,0.0224,0.0225,0.0282,0.0321,0.0357,0.0456,0.0471,0,0,0,0.0221,0.0235,0.0244,0.026,0.0267,0.029,0.0276,0.0273,0.0277,0.0226,0.0284,0.0307,0.0328,0.0354,0.0366,0.0233,0.0233,0.0233,0.0232,0.0258,0.0268,0.0307,0.0323,0.0342,0.035,0.0368,0.036,0.0323,0.0331,0.0352,0.042,0.0448,0.0458,0.0341,0.0341,0.0341,0.0341,0.0342,0.0317,0.0342,0.0359,0.04,0.0415,0.0448,0.0462,0.0444,0.0461,0.0412,0.0428,0.0411,0.0475,0.0346,0.0345,0.0344,0.0344,0.0344,0.0343,0.0342,0.0359,0.0381,0.0443,0.0497,0.0519,0.0595,0.0571,0.0528,0.0543,0.0555,0.0555,0.0462,0.0541,0.0542,0.0542,0.0542,0.0543,0.0543,0.0356,0.0384,0.0434,0.0498,0.055,0.0625,0.0673,0.0696,0.0682,0.0639,0.0639,0.0488,0.0481,0.0474,0.0548,0.0547,0.0547,0.0546,0.0546,0.0398,0.0404,0.0486,0.054,0.0673,0.0794,0.0823,0.0875,0.0862,0.086,0.0689,0.0684,0.0675,0.0664,0.0661,0.078,0.078,0.078,0.078,0.0418,0.0429,0.054,0.0644,0.0775,0.0877,0.1019,0.1011,0.0923,0.084,0.0837,0.0795,0.0785,0.0778,0.0765,0.0762,0.0907,0.0907,0.0907,0.0455,0.0482,0.0567,0.0667,0.0826,0.0979,0.111,0.1082,0.0929,0.0908,0.082,0.0796,0.0724,0.0712,0.0689,0.0673,0.0662,0,0]}],[{"header":{"parameterUnit":"m.s-1","parameterCategory":2,"la1":30.2992,"la2":30.254,"lo1":-89.0895,"lo2":-89.0443,"dy":0.0025,"dx":0.0025,"nx":19,"ny":19,"refTime":"2026-03-25T21:00:00:Z","depth":"4","parameterNumber":2,"parameterNumberName":"U-component_of_CURRENTS"},"data":[0,0,0,0.0955,0.0958,0.1075,0.1075,0.1144,0.1144,0,0,0,0,0,0,0,0,0,0,0,0.0906,0.0907,0.0955,0.0959,0.1075,0.1075,0.1143,0.1144,0,0,0,0,0,0,0,0,0,0,0,0.0906,0.0907,0.0908,0.0959,0.1075,0.1075,0.1143,0.1073,0,0,0,0,0,0,0,0,0,0,0.0969,0.0947,0.0906,0.0908,0.096,0.1075,0.1075,0.107,0.1077,0.1071,0,0.1096,0,0.113,0.1148,0.1148,0,0,0,0.0947,0.0942,0.0969,0.0908,0.0961,0.1074,0.1019,0.1075,0.1082,0.108,0.1098,0.1101,0.1131,0.1148,0.1149,0.1216,0.1216,0,0,0.0941,0.0929,0.0963,0.0974,0.0999,0.1015,0.1023,0.108,0.1092,0.1098,0.1104,0.1132,0.1149,0.1149,0.1215,0.1216,0,0,0,0.093,0.0925,0.0952,0.097,0.1002,0.1019,0.1028,0.109,0.1098,0.1105,0.1133,0.1149,0.115,0.1215,0.1216,0.1262,0,0,0,0.0926,0.092,0.0949,0.0944,0.1002,0.1062,0.1036,0.1094,0.1102,0.1133,0.1149,0.115,0.1215,0.1215,0.126,0.1265,0,0,0,0.0899,0.0917,0.0932,0.0943,0.0999,0.1062,0.1074,0.1096,0.1119,0.1148,0.115,0.1215,0.1215,0.1258,0.1263,0.1293,0,0,0,0.088,0.09,0.0932,0.0962,0.0998,0.1057,0.1074,0.113,0.1158,0.1149,0.1215,0.1216,0.1257,0.1261,0.1291,0.1106,0,0,0,0.0887,0.0901,0.0916,0.0947,0.0999,0.1039,0.1099,0.115,0.1164,0.1187,0.119,0.126,0.1262,0.1292,0.1151,0,0,0,0,0.0905,0.0918,0.0937,0.0982,0.103,0.1089,0.1144,0.1175,0.1233,0.1188,0.1263,0.1262,0.128,0.1167,0.1219,0.1219,0.1219,0.1219,0.1219,0.09,0.0925,0.0954,0.0996,0.1042,0.1132,0.1182,0.1234,0.1247,0.1288,0.1302,0.1357,0.1239,0.1312,0.1312,0.1312,0.1312,0.1312,0.1313,0.0899,0.0907,0.096,0.0999,0.107,0.1136,0.123,0.1273,0.1351,0.1344,0.136,0.1225,0.1317,0.1316,0.1316,0.1315,0.1315,0.1314,0.1314,0.0878,0.0882,0.0924,0.0986,0.1068,0.1155,0.1226,0.1314,0.138,0.1416,0.13,0.1386,0.1379,0.1436,0.1437,0.1437,0.1437,0.1437,0.1437,0.0833,0.0869,0.09,0.0972,0.1018,0.1103,0.1238,0.1285,0.1374,0.1321,0.1434,0.1398,0.1394,0.1386,0.144,0.1439,0.1439,0.1439,0.1439,0.0782,0.0818,0.0848,0.0888,0.0967,0.1006,0.1147,0.1204,0.1247,0.1245,0.1268,0.1276,0.124,0.124,0.1224,0.1233,0.123,0.1228,0,0.0745,0.0764,0.0796,0.0821,0.0846,0.0935,0.0943,0.1025,0.1116,0.1072,0.1255,0.1279,0.1283,0.124,0.1236,0.1216,0,0,0,0.0711,0.0731,0.0727,0.0763,0.0775,0.0828,0.0937,0.0929,0.1097,0.1091,0.1173,0.1188,0.1334,0.1448,0.141,0.1405,0.139,0,0]},{"header":{"parameterUnit":"m.s-1","parameterCategory":2,"la1":30.2992,"la2":30.254,"lo1":-89.0895,"lo2":-89.0443,"dy":0.0025,"dx":0.0025,"nx":19,"ny":19,"refTime":"2026-03-25T21:00:00:Z","depth":"4","parameterNumber":3,"parameterNumberName":"V-component_of_CURRENTS"},"data":[0,0,0,0.0206,0.0206,0.0214,0.0214,0.022,0.022,0,0,0,0,0,0,0,0,0,0,0,0.0205,0.0205,0.0206,0.0206,0.0213,0.0214,0.022,0.022,0,0,0,0,0,0,0,0,0,0,0,0.0205,0.0205,0.0205,0.0206,0.0213,0.0214,0.022,0.0216,0,0,0,0,0,0,0,0,0,0,0.0209,0.0209,0.0205,0.0205,0.0206,0.0213,0.0214,0.0216,0.0216,0.0216,0,0.0217,0,0.0218,0.0221,0.0221,0,0,0,0.0208,0.0208,0.0209,0.0205,0.0206,0.0213,0.0211,0.0216,0.0216,0.0217,0.0218,0.0218,0.0218,0.0221,0.0221,0.0238,0.0238,0,0,0.0207,0.0207,0.0209,0.021,0.0209,0.021,0.0211,0.0216,0.0218,0.0218,0.0218,0.0218,0.0221,0.0221,0.0238,0.0238,0,0,0,0.0205,0.0207,0.0208,0.0209,0.021,0.0211,0.0211,0.0217,0.0217,0.0218,0.0218,0.0221,0.0221,0.0238,0.0238,0.0283,0,0,0,0.0205,0.0206,0.0208,0.0208,0.021,0.0214,0.0212,0.0217,0.0218,0.0218,0.0221,0.0221,0.0238,0.0238,0.0282,0.0309,0,0,0,0.0205,0.0206,0.0206,0.0208,0.021,0.0214,0.0215,0.0217,0.0218,0.0221,0.0221,0.0237,0.0238,0.028,0.0306,0.0331,0,0,0,0.0205,0.0216,0.0207,0.0224,0.021,0.023,0.0215,0.0228,0.0234,0.0221,0.0238,0.0238,0.028,0.0305,0.0329,0.0327,0,0,0,0.0221,0.0218,0.023,0.0222,0.0248,0.0229,0.0259,0.0257,0.0238,0.0235,0.0236,0.0282,0.0306,0.033,0.0349,0,0,0,0,0.0237,0.0247,0.0254,0.0266,0.0271,0.0286,0.0278,0.0273,0.0273,0.0242,0.0277,0.0291,0.0305,0.0298,0.024,0.024,0.024,0.024,0.024,0.0258,0.0267,0.0294,0.0308,0.032,0.0326,0.0337,0.0326,0.0303,0.0306,0.0324,0.0369,0.0363,0.0315,0.0315,0.0315,0.0315,0.0315,0.0315,0.0293,0.0311,0.0328,0.0359,0.0372,0.0396,0.0398,0.0387,0.0392,0.0359,0.037,0.0341,0.032,0.0319,0.0318,0.0318,0.0317,0.0317,0.0317,0.0305,0.0317,0.034,0.0389,0.0433,0.0451,0.0498,0.0478,0.0443,0.0453,0.0438,0.0402,0.0403,0.0456,0.0457,0.0457,0.0457,0.0457,0.0457,0.0305,0.0331,0.0374,0.0427,0.0473,0.0529,0.0556,0.056,0.0524,0.0496,0.0469,0.0417,0.0412,0.041,0.0461,0.046,0.046,0.046,0.0459,0.0321,0.0336,0.0401,0.045,0.0559,0.0601,0.0629,0.0617,0.0617,0.0587,0.0513,0.0509,0.0494,0.0487,0.0488,0.0563,0.0564,0.0564,0,0.033,0.0341,0.0433,0.0519,0.0608,0.0649,0.0673,0.067,0.0608,0.0595,0.0606,0.0524,0.052,0.0502,0.0497,0.0498,0,0,0,0.0347,0.0373,0.0439,0.0527,0.0633,0.0665,0.0682,0.0668,0.0615,0.0609,0.0569,0.0567,0.0527,0.0472,0.0439,0.0434,0.043,0,0]}]]